DLH1A EHAM-EDDF

Flight info

Callsign DLH1A
Flight time N/A
Altitude 35000
Route EDUPO Z739 MISGO DCT DIXAT DIXAT1A
Aircraft A346/H-SDE2E3FGHIJ3J4J5M1RWXY/LB1D1

Departure

Time 2026-05-07 13:11
Airport Amsterdam Airport Schiphol (EHAM)

Arrival

Time N/A
Airport Frankfurt Main Airport (EDDF)
Time Latitude Longitude Altitude Speed Heading
2026-05-07 12:46 52.31300 4.75823 13 ft 0 kts 265°
2026-05-07 12:59 52.31301 4.75831 7 ft 3 kts 266°
2026-05-07 12:59 52.31300 4.75873 8 ft 4 kts 280°
2026-05-07 12:59 52.31292 4.75909 10 ft 4 kts 304°
2026-05-07 12:59 52.31279 4.75934 11 ft 4 kts 327°
2026-05-07 13:00 52.31260 4.75943 9 ft 4 kts 360°
2026-05-07 13:00 52.31240 4.75941 9 ft 0 kts
2026-05-07 13:02 52.31298 4.75935 9 ft 14 kts 355°
2026-05-07 13:02 52.31336 4.75930 7 ft 0 kts 355°
2026-05-07 13:03 52.31362 4.75928 7 ft 18 kts 358°
2026-05-07 13:03 52.31486 4.75896 8 ft 14 kts 316°
2026-05-07 13:03 52.31512 4.75744 7 ft 14 kts 275°
2026-05-07 13:03 52.31515 4.75555 7 ft 19 kts 270°
2026-05-07 13:04 52.31508 4.75317 7 ft 25 kts 267°
2026-05-07 13:04 52.31497 4.75018 7 ft 28 kts 266°
2026-05-07 13:04 52.31494 4.74750 7 ft 23 kts 289°
2026-05-07 13:04 52.31619 4.74676 9 ft 16 kts 23°
2026-05-07 13:05 52.31666 4.74787 7 ft 8 kts 78°
2026-05-07 13:05 52.31667 4.74806 7 ft 0 kts 85°
2026-05-07 13:05 52.31667 4.74809 7 ft 1 kts 85°
2026-05-07 13:05 52.31667 4.74810 7 ft 0 kts 85°
2026-05-07 13:06 52.31676 4.75011 5 ft 21 kts 86°
2026-05-07 13:07 52.31677 4.75049 5 ft 0 kts 86°
2026-05-07 13:07 52.31677 4.75050 5 ft 0 kts 86°
2026-05-07 13:10 52.31688 4.75370 6 ft 65 kts 87°
2026-05-07 13:10 52.31725 4.76504 8 ft 131 kts 86°
2026-05-07 13:10 52.31784 4.78269 48 ft 179 kts 83°
2026-05-07 13:11 52.31870 4.80373 671 ft 184 kts 84°
2026-05-07 13:11 52.31917 4.82451 1476 ft 183 kts 85°
2026-05-07 13:11 52.31989 4.84530 2249 ft 184 kts 84°
2026-05-07 13:11 52.31983 4.86727 2718 ft 201 kts 98°
2026-05-07 13:12 52.31529 4.88968 3177 ft 218 kts 110°
2026-05-07 13:12 52.30899 4.91351 3613 ft 237 kts 112°
2026-05-07 13:12 52.30203 4.93907 4144 ft 255 kts 113°
2026-05-07 13:12 52.29525 4.96668 4891 ft 264 kts 108°
2026-05-07 13:13 52.28982 4.99575 5826 ft 267 kts 106°
2026-05-07 13:13 52.28473 5.02482 6780 ft 270 kts 106°
2026-05-07 13:13 52.27953 5.05472 7699 ft 275 kts 106°
2026-05-07 13:13 52.27425 5.08507 8626 ft 280 kts 107°
2026-05-07 13:14 52.26883 5.11607 9586 ft 285 kts 107°
2026-05-07 13:14 52.26330 5.14763 10469 ft 291 kts 107°
2026-05-07 13:14 52.25755 5.18029 11094 ft 307 kts 107°
2026-05-07 13:14 52.25152 5.21452 11619 ft 325 kts 107°
2026-05-07 13:15 52.24372 5.25026 12130 ft 343 kts 115°
2026-05-07 13:15 52.23187 5.28556 12628 ft 362 kts 123°
2026-05-07 13:15 52.21723 5.32024 13107 ft 380 kts 126°
2026-05-07 13:15 52.20146 5.35614 13791 ft 391 kts 126°
2026-05-07 13:16 52.18556 5.39223 14616 ft 395 kts 126°
2026-05-07 13:16 52.16944 5.42895 15452 ft 400 kts 126°
2026-05-07 13:16 52.15320 5.46606 16236 ft 405 kts 126°
2026-05-07 13:16 52.13673 5.50370 17030 ft 410 kts 126°
2026-05-07 13:17 52.12006 5.54179 17827 ft 415 kts 126°
2026-05-07 13:17 52.10323 5.58024 18589 ft 420 kts 126°
2026-05-07 13:17 52.08613 5.61924 19289 ft 424 kts 126°
2026-05-07 13:17 52.06880 5.65835 19994 ft 428 kts 127°
2026-05-07 13:18 52.05017 5.69653 20715 ft 431 kts 131°
2026-05-07 13:18 52.03049 5.73352 21428 ft 434 kts 132°
2026-05-07 13:18 52.01052 5.77072 22137 ft 438 kts 132°
2026-05-07 13:18 51.99027 5.80837 22829 ft 442 kts 132°
2026-05-07 13:19 51.96991 5.84626 23510 ft 446 kts 132°
2026-05-07 13:19 51.94970 5.88400 24083 ft 450 kts 132°
2026-05-07 13:19 51.92877 5.92309 24644 ft 454 kts 132°
2026-05-07 13:19 51.90806 5.96170 25211 ft 457 kts 132°
2026-05-07 13:20 51.88693 6.00101 25789 ft 461 kts 132°
2026-05-07 13:20 51.86567 6.04047 26343 ft 464 kts 132°
2026-05-07 13:20 51.84447 6.07971 26876 ft 468 kts 132°
2026-05-07 13:20 51.82284 6.11950 27409 ft 471 kts 132°
2026-05-07 13:21 51.80100 6.15954 27945 ft 475 kts 133°
2026-05-07 13:21 51.77926 6.19933 28464 ft 478 kts 132°
2026-05-07 13:21 51.75712 6.23982 28978 ft 482 kts 132°
2026-05-07 13:21 51.73467 6.28080 29585 ft 483 kts 132°
2026-05-07 13:22 51.71236 6.32149 30337 ft 481 kts 132°
2026-05-07 13:22 51.69001 6.36215 31025 ft 479 kts 133°
2026-05-07 13:22 51.66799 6.40213 31650 ft 478 kts 133°
2026-05-07 13:22 51.64567 6.44258 32243 ft 477 kts 133°
2026-05-07 13:23 51.62351 6.48273 32831 ft 477 kts 133°
2026-05-07 13:23 51.60163 6.52236 33409 ft 477 kts 133°
2026-05-07 13:23 51.57878 6.56365 34015 ft 476 kts 133°
2026-05-07 13:23 51.55650 6.60384 34505 ft 476 kts 133°
2026-05-07 13:24 51.53459 6.64328 34920 ft 476 kts 133°
2026-05-07 13:24 51.51244 6.68308 35032 ft 477 kts 133°
2026-05-07 13:24 51.46806 6.76263 35039 ft 477 kts 133°
2026-05-07 13:25 51.42300 6.84311 35041 ft 478 kts 133°
2026-05-07 13:25 51.38047 6.92463 35045 ft 479 kts 129°
2026-05-07 13:26 51.33903 7.00795 35044 ft 479 kts 129°
2026-05-07 13:26 51.29746 7.09113 35042 ft 479 kts 129°
2026-05-07 13:27 51.25505 7.17402 35040 ft 478 kts 131°
2026-05-07 13:27 51.21143 7.25486 35041 ft 479 kts 131°
2026-05-07 13:28 51.16768 7.33570 35038 ft 479 kts 131°
2026-05-07 13:28 51.12402 7.41610 35038 ft 480 kts 131°
2026-05-07 13:29 51.08028 7.49637 35037 ft 480 kts 131°
2026-05-07 13:29 51.03657 7.57630 35036 ft 480 kts 131°
2026-05-07 13:30 50.99264 7.65640 35034 ft 480 kts 131°
2026-05-07 13:30 50.94881 7.73605 35036 ft 480 kts 131°
2026-05-07 13:31 50.90435 7.81660 35031 ft 480 kts 132°
2026-05-07 13:31 50.86045 7.89588 35025 ft 480 kts 132°
2026-05-07 13:32 50.81630 7.97536 35016 ft 480 kts 132°
2026-05-07 13:32 50.77187 8.05510 35022 ft 480 kts 132°
2026-05-07 13:33 50.72755 8.13438 35024 ft 480 kts 132°
2026-05-07 13:33 50.68322 8.21346 35020 ft 480 kts 132°
2026-05-07 13:34 50.62573 8.31563 35017 ft 480 kts 132°
2026-05-07 13:35 50.58096 8.39491 35027 ft 480 kts 132°
2026-05-07 13:35 50.53667 8.47312 35029 ft 480 kts 132°
2026-05-07 13:36 50.49221 8.55136 35033 ft 480 kts 132°
2026-05-07 13:36 50.44757 8.62970 35027 ft 480 kts 133°
2026-05-07 13:37 50.40292 8.70782 35042 ft 480 kts 133°
2026-05-07 13:37 50.35853 8.78522 35027 ft 480 kts 133°
2026-05-07 13:38 50.31363 8.86330 35022 ft 480 kts 133°
2026-05-07 13:38 50.26885 8.94093 35036 ft 480 kts 133°
2026-05-07 13:39 50.22409 9.01827 35018 ft 480 kts 133°
2026-05-07 13:39 50.17919 9.09563 35021 ft 480 kts 133°
2026-05-07 13:40 50.13427 9.17279 35029 ft 480 kts 133°
2026-05-07 13:40 50.11166 9.21161 34866 ft 482 kts 133°